| time (UTC) | temp C | wind direction | speed KPH | gust KPH | rain 1hr cm | rain 24hr cm | rain mn cm | humidity % | barometer mb |
| 20260509182803 | 10 | 184 | 3.2 | 3.2 | 0.36 | 0.66 | 0.66 | 99 | 1008.4 |
| 20260509182300 | 10 | 140 | 4.8 | 6.4 | 0.30 | 0.61 | 0.61 | 99 | 1008.1 |
| 20260509181757 | 11 | 204 | 1.6 | 1.6 | 0.30 | 0.58 | 0.58 | 99 | 1008.7 |
| 20260509181255 | 11 | 202 | 1.6 | 1.6 | 0.13 | 0.56 | 0.56 | 99 | 1008.7 |
| 20260509180752 | 11 | 202 | 1.6 | 1.6 | 0.30 | 0.56 | 0.56 | 99 | 1008.5 |
| 20260509180248 | 11 | 220 | 4.8 | 9.7 | 0.18 | 0.53 | 0.53 | 99 | 1008.5 |
| 20260509175744 | 11 | 195 | 1.6 | 3.2 | 0.13 | 0.51 | 0.51 | 99 | 1008.6 |
| 20260509175241 | 11 | 232 | 1.6 | 3.2 | 0.13 | 0.51 | 0.51 | 99 | 1008.6 |
| 20260509174737 | 11 | 173 | 0.0 | 1.6 | 0.00 | 0.48 | 0.48 | 99 | 1008.5 |
| 20260509174233 | 11 | 184 | 1.6 | 1.6 | 0.00 | 0.48 | 0.48 | 99 | 1008.5 |
| 20260509173729 | 11 | 198 | 1.6 | 1.6 | 0.00 | 0.48 | 0.48 | 99 | 1008.3 |
| 20260509173225 | 11 | 196 | 0.0 | 1.6 | 0.18 | 0.48 | 0.48 | 99 | 1008.3 |
| 20260509172721 | 10 | 198 | 1.6 | 1.6 | 0.18 | 0.48 | 0.48 | 99 | 1008.3 |
| 20260509172217 | 10 | 202 | 1.6 | 3.2 | 0.00 | 0.46 | 0.46 | 99 | 1008.5 |
| 20260509171713 | 10 | 213 | 1.6 | 3.2 | 0.00 | 0.46 | 0.46 | 99 | 1008.3 |
| 20260509171210 | 10 | 194 | 1.6 | 1.6 | 0.13 | 0.46 | 0.46 | 99 | 1008.4 |
| 20260509170707 | 10 | 161 | 0.0 | 0.0 | 0.30 | 0.46 | 0.46 | 99 | 1008.3 |
| 20260509170202 | 10 | 182 | 1.6 | 1.6 | 0.18 | 0.43 | 0.43 | 99 | 1008.4 |
| 20260509165701 | 10 | 225 | 3.2 | 4.8 | 0.18 | 0.43 | 0.43 | 99 | 1008.5 |
| 20260509165156 | 10 | 170 | 1.6 | 1.6 | 0.00 | 0.41 | 0.41 | 99 | 1008.5 |
| 20260509164652 | 10 | 185 | 1.6 | 1.6 | 0.00 | 0.41 | 0.41 | 99 | 1008.5 |
| 20260509164148 | 10 | 181 | 1.6 | 1.6 | 0.00 | 0.41 | 0.41 | 99 | 1008.4 |
| 20260509163646 | 10 | 182 | 1.6 | 1.6 | 0.00 | 0.41 | 0.41 | 99 | 1008.4 |
| 20260509163142 | 10 | 178 | 0.0 | 1.6 | 0.00 | 0.41 | 0.41 | 99 | 1008.5 |
| 20260509162639 | 10 | 165 | 0.0 | 0.0 | 0.00 | 0.41 | 0.41 | 99 | 1008.4 |
| 20260509162135 | 10 | 161 | 0.0 | 1.6 | 0.00 | 0.41 | 0.41 | 99 | 1008.5 |
| 20260509161631 | 10 | 161 | 0.0 | 0.0 | 0.00 | 0.41 | 0.41 | 99 | 1008.5 |
| 20260509161126 | 10 | 172 | 0.0 | 0.0 | 0.00 | 0.41 | 0.41 | 99 | 1008.4 |
| 20260509160623 | 10 | 181 | 0.0 | 0.0 | 0.00 | 0.41 | 0.41 | 99 | 1008.4 |
| 20260509160118 | 10 | 164 | 1.6 | 1.6 | 0.00 | 0.41 | 0.41 | 99 | 1008.7 |
| 20260509155615 | 9 | 164 | 1.6 | 1.6 | 0.13 | 0.41 | 0.41 | 99 | 1008.6 |
| 20260509155111 | 9 | 165 | 0.0 | 1.6 | 0.13 | 0.41 | 0.41 | 99 | 1008.7 |
| 20260509154606 | 9 | 162 | 0.0 | 0.0 | 0.00 | 0.38 | 0.38 | 99 | 1008.8 |
| 20260509154104 | 9 | 164 | 0.0 | 0.0 | 0.00 | 0.38 | 0.38 | 99 | 1009.2 |
| 20260509153601 | 9 | 186 | 0.0 | 0.0 | 0.00 | 0.38 | 0.38 | 99 | 1009.1 |
| 20260509153058 | 8 | 214 | 3.2 | 3.2 | 0.00 | 0.38 | 0.38 | 99 | 1009.2 |
| 20260509152554 | 8 | 128 | 0.0 | 1.6 | 0.18 | 0.38 | 0.38 | 99 | 1009.1 |
| 20260509152051 | 8 | 120 | 0.0 | 0.0 | 0.18 | 0.38 | 0.38 | 99 | 1009.1 |
| 20260509151547 | 8 | 120 | 0.0 | 0.0 | 0.00 | 0.36 | 0.36 | 99 | 1009.2 |
| 20260509151045 | 8 | 120 | 0.0 | 0.0 | 0.00 | 0.36 | 0.36 | 99 | 1009.1 |
| 20260509150542 | 8 | 120 | 0.0 | 1.6 | 0.00 | 0.36 | 0.36 | 99 | 1009.0 |
| 20260509150035 | 8 | 120 | 0.0 | 0.0 | 0.00 | 0.36 | 0.36 | 99 | 1009.3 |
| 20260509145530 | 8 | 120 | 0.0 | 0.0 | 0.00 | 0.36 | 0.36 | 99 | 1009.4 |
| 20260509145025 | 8 | 120 | 1.6 | 1.6 | 0.00 | 0.36 | 0.36 | 99 | 1009.2 |
| 20260509144523 | 8 | 119 | 1.6 | 1.6 | 0.13 | 0.36 | 0.36 | 99 | 1009.1 |
| 20260509144020 | 8 | 125 | 0.0 | 1.6 | 0.13 | 0.36 | 0.36 | 99 | 1009.2 |
| 20260509143517 | 8 | 137 | 0.0 | 1.6 | 0.00 | 0.33 | 0.33 | 99 | 1009.0 |
| 20260509143015 | 8 | 137 | 0.0 | 0.0 | 0.00 | 0.33 | 0.33 | 99 | 1009.0 |
| 20260509142510 | 8 | 138 | 3.2 | 3.2 | 0.00 | 0.33 | 0.33 | 99 | 1009.2 |
| 20260509142006 | 8 | 126 | 1.6 | 1.6 | 0.00 | 0.33 | 0.33 | 99 | 1009.0 |
| 20260509141503 | 8 | 126 | 1.6 | 1.6 | 0.18 | 0.33 | 0.33 | 99 | 1009.1 |
| 20260509140959 | 8 | 126 | 1.6 | 1.6 | 0.18 | 0.33 | 0.33 | 99 | 1009.0 |
| 20260509140455 | 8 | 126 | 1.6 | 1.6 | 0.00 | 0.30 | 0.30 | 99 | 1008.9 |
| 20260509135954 | 7 | 125 | 1.6 | 1.6 | 0.00 | 0.30 | 0.30 | 99 | 1008.9 |
| 20260509135451 | 7 | 126 | 1.6 | 1.6 | 0.00 | 0.30 | 0.30 | 99 | 1009.0 |
| 20260509134948 | 7 | 128 | 1.6 | 1.6 | 0.18 | 0.30 | 0.30 | 99 | 1009.0 |
| 20260509134446 | 7 | 120 | 1.6 | 1.6 | 0.18 | 0.30 | 0.30 | 99 | 1009.0 |
| 20260509133943 | 7 | 115 | 1.6 | 1.6 | 0.18 | 0.30 | 0.30 | 99 | 1009.1 |
| 20260509133439 | 7 | 122 | 1.6 | 3.2 | 0.00 | 0.28 | 0.28 | 99 | 1009.2 |
| 20260509132937 | 7 | 117 | 0.0 | 1.6 | 0.00 | 0.28 | 0.28 | 99 | 1009.2 |
| 20260509132435 | 7 | 116 | 3.2 | 3.2 | 0.00 | 0.28 | 0.28 | 99 | 1009.2 |
| 20260509131932 | 7 | 135 | 1.6 | 1.6 | 0.00 | 0.28 | 0.28 | 99 | 1009.4 |
| 20260509131429 | 7 | 116 | 3.2 | 3.2 | 0.13 | 0.28 | 0.28 | 99 | 1009.2 |
| 20260509130926 | 7 | 319 | 0.0 | 0.0 | 0.13 | 0.28 | 0.28 | 99 | 1009.5 |
| 20260509130421 | 7 | 99 | 1.6 | 1.6 | 0.00 | 0.25 | 0.25 | 99 | 1009.3 |
| 20260509125919 | 7 | 128 | 1.6 | 1.6 | 0.00 | 0.25 | 0.25 | 99 | 1009.6 |
| 20260509125415 | 7 | 103 | 0.0 | 1.6 | 0.00 | 0.25 | 0.25 | 99 | 1009.4 |
| 20260509124911 | 7 | 111 | 3.2 | 3.2 | 0.00 | 0.25 | 0.25 | 99 | 1009.2 |
| 20260509124408 | 7 | 104 | 3.2 | 3.2 | 0.18 | 0.25 | 0.25 | 99 | 1009.3 |
| 20260509123906 | 8 | 164 | 1.6 | 1.6 | 0.18 | 0.25 | 0.25 | 99 | 1009.5 |
| 20260509123403 | 8 | 158 | 0.0 | 0.0 | 0.00 | 0.23 | 0.23 | 99 | 1009.1 |
| 20260509122858 | 8 | 163 | 0.0 | 0.0 | 0.00 | 0.23 | 0.23 | 99 | 1009.1 |
| 20260509122355 | 7 | 129 | 0.0 | 0.0 | 0.00 | 0.23 | 0.23 | 99 | 1009.0 |
| 20260509121852 | 7 | 129 | 1.6 | 1.6 | 0.00 | 0.23 | 0.23 | 99 | 1009.0 |
| 20260509121350 | 7 | 128 | 0.0 | 0.0 | 0.00 | 0.23 | 0.23 | 99 | 1009.0 |
| 20260509120848 | 7 | 129 | 0.0 | 1.6 | 0.00 | 0.23 | 0.23 | 99 | 1009.0 |
| 20260509120345 | 7 | 124 | 1.6 | 1.6 | 0.00 | 0.23 | 0.23 | 99 | 1009.0 |
| 20260509115843 | 7 | 125 | 1.6 | 1.6 | 0.00 | 0.23 | 0.23 | 99 | 1008.9 |
| 20260509115340 | 7 | 124 | 1.6 | 1.6 | 0.00 | 0.23 | 0.23 | 99 | 1009.1 |
| 20260509114838 | 7 | 125 | 1.6 | 1.6 | 0.00 | 0.23 | 0.23 | 99 | 1008.9 |
| 20260509114336 | 7 | 134 | 1.6 | 1.6 | 0.00 | 0.23 | 0.23 | 99 | 1009.1 |
| 20260509113835 | 7 | 131 | 1.6 | 3.2 | 0.00 | 0.23 | 0.23 | 99 | 1009.0 |
| 20260509113332 | 7 | 174 | 1.6 | 1.6 | 0.13 | 0.23 | 0.23 | 99 | 1009.0 |
| 20260509112828 | 7 | 174 | 1.6 | 1.6 | 0.13 | 0.23 | 0.23 | 99 | 1009.1 |
| 20260509112326 | 7 | 174 | 0.0 | 1.6 | 0.00 | 0.20 | 0.20 | 99 | 1009.2 |
| 20260509111823 | 7 | 174 | 1.6 | 1.6 | 0.00 | 0.20 | 0.20 | 99 | 1009.1 |
| 20260509111320 | 7 | 174 | 1.6 | 3.2 | 0.00 | 0.20 | 0.20 | 99 | 1009.1 |
| 20260509110818 | 7 | 174 | 1.6 | 1.6 | 0.00 | 0.20 | 0.20 | 99 | 1009.2 |
| 20260509110313 | 7 | 174 | 1.6 | 1.6 | 0.00 | 0.20 | 0.20 | 99 | 1009.3 |
| 20260509105812 | 7 | 174 | 1.6 | 1.6 | 0.00 | 0.20 | 0.20 | 99 | 1009.4 |
| 20260509105309 | 7 | 174 | 1.6 | 1.6 | 0.00 | 0.20 | 0.20 | 99 | 1009.3 |
| 20260509104806 | 7 | 174 | 0.0 | 0.0 | 0.00 | 0.20 | 0.20 | 99 | 1009.3 |
| 20260509104303 | 7 | 174 | 1.6 | 1.6 | 0.18 | 0.20 | 0.20 | 99 | 1009.2 |
| 20260509103801 | 7 | 174 | 0.0 | 1.6 | 0.18 | 0.20 | 0.20 | 99 | 1009.3 |
| 20260509103257 | 7 | 174 | 0.0 | 0.0 | 0.00 | 0.18 | 0.18 | 99 | 1009.0 |
| 20260509102756 | 7 | 174 | 0.0 | 1.6 | 0.00 | 0.18 | 0.18 | 99 | 1008.9 |
| 20260509102253 | 7 | 173 | 0.0 | 1.6 | 0.00 | 0.18 | 0.18 | 99 | 1008.9 |
| 20260509101749 | 7 | 173 | 1.6 | 1.6 | 0.00 | 0.18 | 0.18 | 99 | 1009.1 |
| 20260509101245 | 7 | 173 | 0.0 | 1.6 | 0.00 | 0.18 | 0.18 | 99 | 1009.0 |
| 20260509100743 | 7 | 173 | 1.6 | 1.6 | 0.00 | 0.18 | 0.18 | 99 | 1008.8 |
| 20260509100240 | 7 | 173 | 0.0 | 0.0 | 0.00 | 0.18 | 0.18 | 99 | 1008.8 |
| 20260509095736 | 7 | 173 | 0.0 | 0.0 | 0.00 | 0.18 | 0.18 | 99 | 1009.0 |
| 20260509095234 | 7 | 173 | 0.0 | 1.6 | 0.00 | 0.18 | 0.18 | 99 | 1009.2 |
| 20260509094731 | 7 | 173 | 0.0 | 0.0 | 0.00 | 0.18 | 0.18 | 99 | 1009.2 |
| 20260509094228 | 7 | 173 | 0.0 | 1.6 | 0.00 | 0.18 | 0.18 | 99 | 1009.1 |
| 20260509093726 | 7 | 173 | 0.0 | 0.0 | 0.00 | 0.18 | 0.18 | 99 | 1009.4 |
| 20260509093222 | 7 | 173 | 0.0 | 0.0 | 0.00 | 0.18 | 0.18 | 99 | 1009.1 |
| 20260509092721 | 7 | 173 | 0.0 | 0.0 | 0.00 | 0.18 | 0.18 | 99 | 1009.3 |
| 20260509092219 | 7 | 173 | 0.0 | 0.0 | 0.00 | 0.18 | 0.18 | 99 | 1009.2 |
| 20260509091716 | 7 | 173 | 0.0 | 0.0 | 0.00 | 0.18 | 0.18 | 99 | 1009.1 |
| 20260509091212 | 7 | 174 | 0.0 | 0.0 | 0.00 | 0.18 | 0.18 | 99 | 1009.5 |
| 20260509090710 | 7 | 174 | 0.0 | 0.0 | 0.00 | 0.18 | 0.18 | 99 | 1009.5 |
| 20260509090207 | 7 | 174 | 0.0 | 0.0 | 0.00 | 0.18 | 0.18 | 99 | 1009.5 |
| 20260509085705 | 7 | 174 | 0.0 | 0.0 | 0.00 | 0.18 | 0.18 | 99 | 1009.5 |
| 20260509085201 | 7 | 174 | 0.0 | 0.0 | 0.00 | 0.18 | 0.18 | 99 | 1009.6 |
| 20260509084658 | 7 | 174 | 0.0 | 0.0 | 0.00 | 0.18 | 0.18 | 99 | 1009.5 |
| 20260509084155 | 7 | 174 | 0.0 | 0.0 | 0.00 | 0.18 | 0.18 | 99 | 1009.3 |
| 20260509083653 | 7 | 174 | 0.0 | 1.6 | 0.00 | 0.18 | 0.18 | 99 | 1009.4 |
| 20260509083149 | 7 | 174 | 0.0 | 0.0 | 0.00 | 0.18 | 0.18 | 99 | 1009.6 |
| 20260509082646 | 7 | 174 | 0.0 | 0.0 | 0.00 | 0.18 | 0.18 | 99 | 1009.5 |
| 20260509082142 | 7 | 174 | 0.0 | 1.6 | 0.00 | 0.18 | 0.18 | 99 | 1009.4 |
| 20260509081640 | 7 | 174 | 1.6 | 1.6 | 0.00 | 0.18 | 0.18 | 99 | 1009.7 |
| 20260509081137 | 7 | 174 | 1.6 | 1.6 | 0.00 | 0.18 | 0.18 | 99 | 1009.7 |
| 20260509080635 | 7 | 174 | 0.0 | 0.0 | 0.00 | 0.18 | 0.18 | 99 | 1009.8 |
| 20260509080133 | 7 | 174 | 0.0 | 1.6 | 0.00 | 0.18 | 0.18 | 99 | 1009.8 |
| 20260509075631 | 7 | 174 | 0.0 | 0.0 | 0.00 | 0.18 | 0.18 | 99 | 1009.6 |
| 20260509075128 | 7 | 174 | 0.0 | 0.0 | 0.00 | 0.18 | 0.18 | 99 | 1009.8 |
| 20260509074625 | 7 | 174 | 0.0 | 0.0 | 0.00 | 0.18 | 0.18 | 99 | 1009.3 |
| 20260509074121 | 7 | 174 | 0.0 | 0.0 | 0.00 | 0.18 | 0.18 | 99 | 1009.2 |
| 20260509073618 | 7 | 174 | 0.0 | 0.0 | 0.00 | 0.18 | 0.18 | 99 | 1009.3 |
| 20260509073114 | 7 | 174 | 1.6 | 1.6 | 0.00 | 0.18 | 0.18 | 99 | 1009.3 |
| 20260509072611 | 7 | 174 | 0.0 | 0.0 | 0.00 | 0.18 | 0.18 | 99 | 1009.3 |
| 20260509072108 | 7 | 174 | 0.0 | 0.0 | 0.00 | 0.18 | 0.18 | 99 | 1008.9 |
| 20260509071604 | 7 | 174 | 0.0 | 1.6 | 0.00 | 0.18 | 0.18 | 99 | 1009.3 |
| 20260509071102 | 7 | 174 | 1.6 | 1.6 | 0.00 | 0.18 | 0.18 | 99 | 1009.4 |
| 20260509070559 | 7 | 174 | 0.0 | 1.6 | 0.00 | 0.18 | 0.18 | 99 | 1009.6 |
| 20260509070055 | 7 | 174 | 1.6 | 1.6 | 0.13 | 0.18 | 0.18 | 99 | 1009.6 |
| 20260509065550 | 7 | 174 | 1.6 | 1.6 | 0.13 | 0.18 | 0.18 | 99 | 1009.8 |
| 20260509065047 | 7 | 174 | 0.0 | 0.0 | 0.00 | 0.15 | 0.15 | 99 | 1009.8 |
| 20260509064545 | 7 | 174 | 0.0 | 0.0 | 0.18 | 0.15 | 0.15 | 99 | 1009.8 |
| 20260509064043 | 7 | 174 | 0.0 | 1.6 | 0.30 | 0.15 | 0.15 | 98 | 1010.1 |
| 20260509063538 | 7 | 174 | 0.0 | 1.6 | 0.30 | 0.13 | 0.13 | 98 | 1009.8 |
| 20260509063036 | 7 | 174 | 1.6 | 1.6 | 0.30 | 0.10 | 0.10 | 98 | 1009.9 |
| 20260509062532 | 7 | 174 | 1.6 | 1.6 | 0.30 | 0.08 | 0.08 | 97 | 1009.8 |
| 20260509062030 | 7 | 211 | 1.6 | 1.6 | 0.30 | 0.08 | 0.08 | 97 | 1009.9 |
| 20260509061527 | 7 | 196 | 0.0 | 1.6 | 0.30 | 0.05 | 0.05 | 96 | 1010.1 |
| 20260509061024 | 7 | 204 | 0.0 | 0.0 | 0.13 | 0.03 | 0.03 | 95 | 1010.2 |
| 20260509060521 | 7 | 159 | 1.6 | 3.2 | 0.00 | 0.00 | 0.00 | 95 | 1009.8 |
| 20260509060017 | 7 | 159 | 1.6 | 3.2 | 0.00 | 0.00 | 0.00 | 94 | 1009.9 |
| 20260509055512 | 7 | 159 | 0.0 | 1.6 | 0.00 | 0.00 | 0.00 | 94 | 1010.2 |
| 20260509055009 | 7 | 159 | 1.6 | 1.6 | 0.00 | 0.00 | 0.00 | 95 | 1010.1 |
| 20260509054506 | 7 | 159 | 0.0 | 1.6 | 0.00 | 0.00 | 0.00 | 94 | 1010.1 |
| 20260509054004 | 7 | 159 | 0.0 | 0.0 | 0.00 | 0.00 | 0.00 | 93 | 1009.8 |
| 20260509053502 | 7 | 159 | 0.0 | 0.0 | 0.00 | 0.00 | 0.00 | 93 | 1009.8 |
| 20260509052959 | 7 | 159 | 0.0 | 0.0 | 0.00 | 0.00 | 0.00 | 92 | 1009.6 |
| 20260509052456 | 7 | 159 | 1.6 | 1.6 | 0.00 | 0.00 | 0.00 | 91 | 1009.6 |
| 20260509051954 | 7 | 159 | 0.0 | 0.0 | 0.00 | 0.00 | 0.00 | 90 | 1009.7 |
| 20260509051452 | 7 | 159 | 0.0 | 0.0 | 0.00 | 0.00 | 0.00 | 91 | 1009.9 |
| 20260509050948 | 7 | 159 | 1.6 | 1.6 | 0.00 | 0.00 | 0.00 | 91 | 1009.9 |
| 20260509050445 | 7 | 159 | 1.6 | 1.6 | 0.00 | 0.00 | 0.00 | 91 | 1009.8 |
| 20260509045942 | 7 | 159 | 0.0 | 1.6 | 0.00 | 0.00 | 0.00 | 90 | 1009.9 |
| 20260509045439 | 7 | 159 | 0.0 | 1.6 | 0.00 | 0.00 | 0.00 | 90 | 1010.1 |
| 20260509044936 | 7 | 159 | 1.6 | 1.6 | 0.00 | 0.00 | 0.00 | 90 | 1010.2 |
| 20260509044434 | 7 | 159 | 0.0 | 0.0 | 0.00 | 0.00 | 0.00 | 90 | 1010.1 |
| 20260509043931 | 7 | 159 | 0.0 | 0.0 | 0.00 | 0.00 | 0.00 | 91 | 1010.3 |
| 20260509043426 | 7 | 159 | 1.6 | 1.6 | 0.00 | 0.00 | 0.00 | 91 | 1010.3 |
| 20260509042922 | 7 | 159 | 0.0 | 1.6 | 0.00 | 0.00 | 0.00 | 90 | 1010.3 |
| 20260509042420 | 7 | 159 | 1.6 | 1.6 | 0.00 | 0.00 | 0.00 | 90 | 1010.3 |
| 20260509041915 | 7 | 159 | 1.6 | 1.6 | 0.00 | 0.00 | 0.00 | 90 | 1010.2 |
| 20260509041412 | 7 | 159 | 0.0 | 1.6 | 0.00 | 0.00 | 0.00 | 90 | 1010.4 |
| 20260509040910 | 7 | 159 | 1.6 | 1.6 | 0.00 | 0.00 | 0.00 | 90 | 1009.9 |
| 20260509040408 | 7 | 159 | 0.0 | 1.6 | 0.00 | 0.00 | 0.00 | 90 | 1010.2 |
| 20260509035905 | 7 | 159 | 1.6 | 1.6 | 0.00 | 0.20 | 0.20 | 90 | 1010.4 |
| 20260509035402 | 6 | 159 | 1.6 | 1.6 | 0.00 | 0.20 | 0.20 | 90 | 1010.3 |
| 20260509034858 | 6 | 159 | 1.6 | 1.6 | 0.00 | 0.20 | 0.20 | 90 | 1010.1 |
| 20260509034356 | 6 | 159 | 1.6 | 1.6 | 0.00 | 0.20 | 0.20 | 91 | 1010.3 |
| 20260509033853 | 6 | 159 | 1.6 | 1.6 | 0.00 | 0.20 | 0.20 | 92 | 1010.3 |
| 20260509033350 | 6 | 159 | 1.6 | 1.6 | 0.00 | 0.20 | 0.20 | 91 | 1010.1 |
| 20260509032846 | 6 | 159 | 0.0 | 1.6 | 0.00 | 0.20 | 0.20 | 90 | 1010.3 |
| 20260509032343 | 6 | 159 | 0.0 | 0.0 | 0.00 | 0.20 | 0.20 | 89 | 1010.2 |
| 20260509031841 | 6 | 159 | 1.6 | 1.6 | 0.00 | 0.20 | 0.20 | 89 | 1009.9 |
| 20260509031333 | 7 | 159 | 1.6 | 1.6 | 0.00 | 0.20 | 0.20 | 89 | 1009.8 |
| 20260509030830 | 7 | 159 | 0.0 | 1.6 | 0.00 | 0.20 | 0.20 | 89 | 1010.1 |
| 20260509030328 | 7 | 159 | 1.6 | 1.6 | 0.00 | 0.20 | 0.20 | 87 | 1010.3 |
| 20260509025825 | 7 | 159 | 1.6 | 1.6 | 0.00 | 0.20 | 0.20 | 87 | 1010.4 |
| 20260509025320 | 7 | 159 | 0.0 | 1.6 | 0.00 | 0.20 | 0.20 | 87 | 1010.2 |
| 20260509024816 | 7 | 159 | 0.0 | 0.0 | 0.00 | 0.20 | 0.20 | 86 | 1009.9 |
| 20260509024312 | 7 | 159 | 0.0 | 0.0 | 0.00 | 0.20 | 0.20 | 86 | 1009.8 |
| 20260509023809 | 8 | 159 | 0.0 | 0.0 | 0.00 | 0.20 | 0.20 | 84 | 1010.4 |
| 20260509023307 | 8 | 159 | 1.6 | 1.6 | 0.00 | 0.20 | 0.20 | 84 | 1010.3 |
| 20260509022803 | 8 | 159 | 0.0 | 1.6 | 0.00 | 0.20 | 0.20 | 84 | 1010.2 |
| 20260509022301 | 8 | 159 | 0.0 | 0.0 | 0.00 | 0.20 | 0.20 | 84 | 1010.3 |
| 20260509021757 | 8 | 159 | 0.0 | 0.0 | 0.00 | 0.20 | 0.20 | 84 | 1010.2 |
| 20260509021254 | 8 | 159 | 1.6 | 1.6 | 0.00 | 0.20 | 0.20 | 84 | 1010.2 |
| 20260509020752 | 8 | 159 | 0.0 | 0.0 | 0.00 | 0.20 | 0.20 | 84 | 1010.2 |
| 20260509020250 | 8 | 159 | 0.0 | 0.0 | 0.00 | 0.20 | 0.20 | 83 | 1010.2 |
| 20260509015747 | 8 | 159 | 0.0 | 0.0 | 0.00 | 0.20 | 0.20 | 84 | 1009.9 |
| 20260509015245 | 8 | 159 | 0.0 | 1.6 | 0.00 | 0.20 | 0.20 | 84 | 1009.6 |
| 20260509014741 | 8 | 159 | 0.0 | 0.0 | 0.00 | 0.20 | 0.20 | 83 | 1009.9 |
| 20260509014239 | 8 | 159 | 1.6 | 1.6 | 0.00 | 0.20 | 0.20 | 84 | 1010.1 |
| 20260509013735 | 8 | 159 | 0.0 | 0.0 | 0.00 | 0.20 | 0.20 | 83 | 1009.9 |
| 20260509013231 | 8 | 159 | 0.0 | 0.0 | 0.00 | 0.20 | 0.20 | 83 | 1009.8 |
| 20260509012728 | 8 | 159 | 0.0 | 0.0 | 0.00 | 0.20 | 0.20 | 83 | 1009.9 |
| 20260509012224 | 8 | 159 | 0.0 | 0.0 | 0.00 | 0.20 | 0.20 | 83 | 1009.6 |
| 20260509011722 | 8 | 159 | 0.0 | 0.0 | 0.00 | 0.20 | 0.20 | 83 | 1009.5 |
| 20260509011219 | 8 | 159 | 0.0 | 1.6 | 0.00 | 0.20 | 0.20 | 82 | 1009.6 |
| 20260509010717 | 8 | 159 | 0.0 | 1.6 | 0.00 | 0.20 | 0.20 | 82 | 1009.3 |
| 20260509010213 | 8 | 159 | 0.0 | 0.0 | 0.00 | 0.20 | 0.20 | 82 | 1009.2 |
| 20260509005711 | 8 | 159 | 0.0 | 1.6 | 0.00 | 0.20 | 0.20 | 82 | 1009.1 |
| 20260509005208 | 8 | 159 | 0.0 | 1.6 | 0.00 | 0.20 | 0.20 | 81 | 1009.3 |
| 20260509004702 | 8 | 159 | 0.0 | 1.6 | 0.00 | 0.20 | 0.20 | 82 | 1009.3 |
| 20260509004200 | 8 | 159 | 0.0 | 0.0 | 0.00 | 0.20 | 0.20 | 81 | 1009.3 |
| 20260509003658 | 8 | 159 | 0.0 | 0.0 | 0.00 | 0.20 | 0.20 | 80 | 1009.3 |
| 20260509003155 | 8 | 159 | 0.0 | 1.6 | 0.00 | 0.20 | 0.20 | 81 | 1009.2 |
| 20260509002653 | 8 | 159 | 0.0 | 0.0 | 0.00 | 0.20 | 0.20 | 80 | 1009.0 |
| 20260509002150 | 8 | 159 | 0.0 | 0.0 | 0.00 | 0.20 | 0.20 | 79 | 1009.5 |
| 20260509001648 | 9 | 159 | 0.0 | 1.6 | 0.00 | 0.20 | 0.20 | 79 | 1009.2 |
| 20260509001143 | 9 | 159 | 1.6 | 1.6 | 0.00 | 0.20 | 0.20 | 79 | 1009.1 |
| 20260509000641 | 9 | 160 | 0.0 | 0.0 | 0.00 | 0.20 | 0.20 | 77 | 1008.9 |
| 20260509000138 | 10 | 160 | 0.0 | 0.0 | 0.00 | 0.20 | 0.20 | 76 | 1008.7 |
| 20260508235635 | 10 | 170 | 1.6 | 1.6 | 0.00 | 0.20 | 0.20 | 75 | 1008.7 |
| 20260508235132 | 10 | 170 | 0.0 | 0.0 | 0.00 | 0.20 | 0.20 | 75 | 1008.7 |
| 20260508234629 | 10 | 170 | 0.0 | 0.0 | 0.00 | 0.20 | 0.20 | 74 | 1008.8 |
| 20260508234125 | 10 | 170 | 1.6 | 1.6 | 0.00 | 0.20 | 0.20 | 73 | 1009.0 |
| 20260508233625 | 10 | 170 | 0.0 | 0.0 | 0.00 | 0.20 | 0.20 | 71 | 1008.8 |
| 20260508233122 | 10 | 171 | 0.0 | 0.0 | 0.00 | 0.20 | 0.20 | 70 | 1008.7 |
| 20260508232619 | 11 | 171 | 0.0 | 0.0 | 0.00 | 0.20 | 0.20 | 70 | 1008.5 |
| 20260508232116 | 11 | 170 | 0.0 | 1.6 | 0.00 | 0.20 | 0.20 | 70 | 1008.6 |
| 20260508231614 | 11 | 171 | 0.0 | 0.0 | 0.00 | 0.20 | 0.20 | 68 | 1008.7 |
| 20260508231110 | 11 | 170 | 1.6 | 1.6 | 0.00 | 0.20 | 0.20 | 67 | 1008.8 |
| 20260508230607 | 11 | 171 | 1.6 | 1.6 | 0.00 | 0.20 | 0.20 | 67 | 1008.6 |
| 20260508230103 | 11 | 245 | 1.6 | 1.6 | 0.00 | 0.20 | 0.20 | 65 | 1008.5 |
| 20260508225601 | 11 | 163 | 3.2 | 3.2 | 0.00 | 0.20 | 0.20 | 65 | 1008.9 |
| 20260508225057 | 11 | 37 | 3.2 | 4.8 | 0.00 | 0.20 | 0.20 | 64 | 1008.8 |
| 20260508224555 | 11 | 208 | 0.0 | 0.0 | 0.00 | 0.20 | 0.20 | 65 | 1008.8 |
| 20260508224052 | 11 | 186 | 1.6 | 1.6 | 0.00 | 0.20 | 0.20 | 64 | 1008.6 |
| 20260508223550 | 11 | 164 | 0.0 | 0.0 | 0.00 | 0.20 | 0.20 | 66 | 1008.6 |
| 20260508223047 | 11 | 194 | 3.2 | 3.2 | 0.00 | 0.20 | 0.20 | 62 | 1008.5 |
| 20260508222544 | 11 | 197 | 1.6 | 3.2 | 0.00 | 0.20 | 0.20 | 63 | 1008.3 |
| 20260508222041 | 11 | 185 | 0.0 | 0.0 | 0.00 | 0.20 | 0.20 | 66 | 1008.2 |
| 20260508221537 | 11 | 180 | 0.0 | 0.0 | 0.00 | 0.20 | 0.20 | 67 | 1008.4 |
| 20260508221033 | 11 | 187 | 0.0 | 1.6 | 0.00 | 0.20 | 0.20 | 67 | 1008.4 |
| 20260508220530 | 11 | 175 | 0.0 | 0.0 | 0.00 | 0.20 | 0.20 | 68 | 1008.3 |
| 20260508220026 | 12 | 177 | 1.6 | 1.6 | 0.00 | 0.20 | 0.20 | 65 | 1008.6 |
| 20260508215524 | 12 | 179 | 0.0 | 1.6 | 0.00 | 0.20 | 0.20 | 63 | 1008.6 |
| 20260508215020 | 12 | 216 | 1.6 | 3.2 | 0.00 | 0.20 | 0.20 | 59 | 1008.3 |
| 20260508214518 | 12 | 219 | 0.0 | 0.0 | 0.00 | 0.20 | 0.20 | 62 | 1008.4 |
| 20260508214014 | 12 | 231 | 3.2 | 3.2 | 0.00 | 0.20 | 0.20 | 60 | 1008.5 |
| 20260508213512 | 12 | 237 | 1.6 | 3.2 | 0.00 | 0.20 | 0.20 | 60 | 1008.4 |
| 20260508213007 | 13 | 219 | 1.6 | 3.2 | 0.00 | 0.20 | 0.20 | 56 | 1008.5 |
| 20260508212504 | 12 | 190 | 1.6 | 3.2 | 0.00 | 0.20 | 0.20 | 56 | 1008.4 |
| 20260508212000 | 14 | 238 | 4.8 | 6.4 | 0.00 | 0.20 | 0.20 | 55 | 1008.4 |
| 20260508211455 | 14 | 286 | 0.0 | 1.6 | 0.00 | 0.20 | 0.20 | 54 | 1008.6 |
| 20260508210952 | 13 | 247 | 1.6 | 1.6 | 0.00 | 0.20 | 0.20 | 59 | 1008.3 |
| 20260508210449 | 12 | 217 | 3.2 | 3.2 | 0.00 | 0.20 | 0.20 | 56 | 1008.3 |
| 20260508205945 | 12 | 233 | 4.8 | 6.4 | 0.00 | 0.20 | 0.20 | 57 | 1008.4 |
| 20260508205443 | 12 | 229 | 3.2 | 3.2 | 0.00 | 0.20 | 0.20 | 57 | 1008.4 |
| 20260508204939 | 12 | 164 | 1.6 | 3.2 | 0.00 | 0.20 | 0.20 | 59 | 1008.5 |
| 20260508204437 | 12 | 248 | 3.2 | 4.8 | 0.00 | 0.20 | 0.20 | 58 | 1008.4 |
| 20260508203931 | 12 | 248 | 3.2 | 3.2 | 0.00 | 0.20 | 0.20 | 55 | 1008.6 |
| 20260508203428 | 13 | 229 | 4.8 | 9.7 | 0.00 | 0.20 | 0.20 | 54 | 1008.4 |
| 20260508202924 | 14 | 223 | 11.3 | 12.9 | 0.00 | 0.20 | 0.20 | 52 | 1008.3 |
| 20260508202421 | 14 | 229 | 6.4 | 11.3 | 0.00 | 0.20 | 0.20 | 52 | 1008.6 |
| 20260508201918 | 15 | 235 | 3.2 | 4.8 | 0.00 | 0.20 | 0.20 | 56 | 1008.5 |
| 20260508201415 | 14 | 224 | 6.4 | 11.3 | 0.00 | 0.20 | 0.20 | 54 | 1008.5 |
| 20260508200911 | 13 | 225 | 6.4 | 6.4 | 0.00 | 0.20 | 0.20 | 55 | 1008.6 |
| 20260508200409 | 13 | 258 | 6.4 | 6.4 | 0.00 | 0.20 | 0.20 | 55 | 1008.6 |
| 20260508195904 | 13 | 222 | 1.6 | 1.6 | 0.00 | 0.20 | 0.20 | 58 | 1008.5 |
| 20260508195401 | 12 | 240 | 3.2 | 4.8 | 0.00 | 0.20 | 0.20 | 63 | 1008.6 |
| 20260508194857 | 13 | 217 | 3.2 | 4.8 | 0.00 | 0.20 | 0.20 | 59 | 1008.7 |
| 20260508194354 | 13 | 225 | 4.8 | 4.8 | 0.00 | 0.20 | 0.20 | 56 | 1008.9 |
| 20260508193851 | 13 | 196 | 6.4 | 6.4 | 0.00 | 0.20 | 0.20 | 60 | 1008.7 |
| 20260508193348 | 13 | 230 | 9.7 | 11.3 | 0.00 | 0.20 | 0.20 | 58 | 1008.9 |
| 20260508192844 | 13 | 250 | 3.2 | 4.8 | 0.00 | 0.20 | 0.20 | 63 | 1008.7 |
| 20260508192341 | 12 | 187 | 6.4 | 9.7 | 0.00 | 0.20 | 0.20 | 62 | 1008.9 |
| 20260508191838 | 12 | 233 | 3.2 | 4.8 | 0.00 | 0.20 | 0.20 | 61 | 1008.8 |
| 20260508191336 | 13 | 233 | 11.3 | 12.9 | 0.00 | 0.20 | 0.20 | 61 | 1008.9 |
| 20260508190833 | 12 | 239 | 8.0 | 9.7 | 0.00 | 0.20 | 0.20 | 65 | 1008.8 |
| 20260508190329 | 11 | 258 | 4.8 | 6.4 | 0.00 | 0.20 | 0.20 | 68 | 1009.1 |
| 20260508185826 | 11 | 317 | 3.2 | 4.8 | 0.00 | 0.20 | 0.20 | 69 | 1009.1 |
| 20260508185323 | 11 | 286 | 4.8 | 4.8 | 0.00 | 0.20 | 0.20 | 69 | 1009.3 |
| 20260508184820 | 12 | 269 | 9.7 | 14.5 | 0.00 | 0.20 | 0.20 | 66 | 1009.5 |
| 20260508184318 | 11 | 202 | 9.7 | 12.9 | 0.00 | 0.20 | 0.20 | 68 | 1009.3 |
| 20260508183814 | 11 | 243 | 6.4 | 9.7 | 0.00 | 0.20 | 0.20 | 71 | 1009.3 |
| 20260508183311 | 10 | 189 | 1.6 | 3.2 | 0.00 | 0.20 | 0.20 | 77 | 1009.4 |